Year,Month,Day,Hour,Minute,Value (Times are PST for temperature in C)
2018,08,18,00,00,16.50
2018,08,18,00,01,16.50
2018,08,18,00,02,16.50
2018,08,18,00,03,16.50
2018,08,18,00,04,16.50
2018,08,18,00,05,16.50
2018,08,18,00,06,16.50
2018,08,18,00,07,16.50
2018,08,18,00,08,16.50
2018,08,18,00,09,16.50
2018,08,18,00,10,16.40
2018,08,18,00,11,16.40
2018,08,18,00,12,16.40
2018,08,18,00,13,16.40
2018,08,18,00,14,16.40
2018,08,18,00,15,16.40
2018,08,18,00,16,16.40
2018,08,18,00,17,16.40
2018,08,18,00,18,16.30
2018,08,18,00,19,16.30
2018,08,18,00,20,16.30
2018,08,18,00,21,16.30
2018,08,18,00,22,16.30
2018,08,18,00,23,16.30
2018,08,18,00,24,16.20
2018,08,18,00,25,16.20
2018,08,18,00,26,16.20
2018,08,18,00,27,16.20
2018,08,18,00,28,16.20
2018,08,18,00,29,16.20
2018,08,18,00,30,16.20
2018,08,18,00,31,16.20
2018,08,18,00,32,16.20
2018,08,18,00,33,16.20
2018,08,18,00,34,16.20
2018,08,18,00,35,16.20
2018,08,18,00,36,16.20
2018,08,18,00,37,16.20
2018,08,18,00,38,16.20
2018,08,18,00,39,16.20
2018,08,18,00,40,16.20
2018,08,18,00,41,16.20
2018,08,18,00,42,16.10
2018,08,18,00,43,16.10
2018,08,18,00,44,16.10
2018,08,18,00,45,16.10
2018,08,18,00,46,16.10
2018,08,18,00,47,16.10
2018,08,18,00,48,16.10
2018,08,18,00,49,16.00
2018,08,18,00,50,16.00
2018,08,18,00,51,16.00
2018,08,18,00,52,16.00
2018,08,18,00,53,16.00
2018,08,18,00,54,15.90
2018,08,18,00,55,15.90
2018,08,18,00,56,15.90
2018,08,18,00,57,15.90
2018,08,18,00,58,15.90
2018,08,18,00,59,15.90
2018,08,18,01,00,15.90
2018,08,18,01,01,15.90
2018,08,18,01,02,15.90
2018,08,18,01,03,15.90
2018,08,18,01,04,15.90
2018,08,18,01,05,15.90
2018,08,18,01,06,15.80
2018,08,18,01,07,15.80
2018,08,18,01,08,15.80
2018,08,18,01,09,15.80
2018,08,18,01,10,15.80
2018,08,18,01,11,15.80
2018,08,18,01,12,15.80
2018,08,18,01,13,15.80
2018,08,18,01,14,15.80
2018,08,18,01,15,15.80
2018,08,18,01,16,15.70
2018,08,18,01,17,15.70
2018,08,18,01,18,15.70
2018,08,18,01,19,15.70
2018,08,18,01,20,15.70
2018,08,18,01,21,15.70
2018,08,18,01,22,15.70
2018,08,18,01,23,15.70
2018,08,18,01,24,15.70
2018,08,18,01,25,15.70
2018,08,18,01,26,15.70
2018,08,18,01,27,15.70
2018,08,18,01,28,15.60
2018,08,18,01,29,15.60
2018,08,18,01,30,15.60
2018,08,18,01,31,15.60
2018,08,18,01,32,15.60
2018,08,18,01,33,15.60
2018,08,18,01,34,15.60
2018,08,18,01,35,15.60
2018,08,18,01,36,15.60
2018,08,18,01,37,15.60
2018,08,18,01,38,15.60
2018,08,18,01,39,15.50
2018,08,18,01,40,15.50
2018,08,18,01,41,15.50
2018,08,18,01,42,15.40
2018,08,18,01,43,15.40
2018,08,18,01,44,15.40
2018,08,18,01,45,15.40
2018,08,18,01,46,15.40
2018,08,18,01,47,15.40
2018,08,18,01,48,15.40
2018,08,18,01,49,15.40
2018,08,18,01,50,15.40
2018,08,18,01,51,15.40
2018,08,18,01,52,15.30
2018,08,18,01,53,15.30
2018,08,18,01,54,15.30
2018,08,18,01,55,15.30
2018,08,18,01,56,15.30
2018,08,18,01,57,15.30
2018,08,18,01,58,15.30
2018,08,18,01,59,15.30
2018,08,18,02,00,15.30
2018,08,18,02,01,15.30
2018,08,18,02,02,15.20
2018,08,18,02,03,15.20
2018,08,18,02,04,15.20
2018,08,18,02,05,15.20
2018,08,18,02,06,15.20
2018,08,18,02,07,15.20
2018,08,18,02,08,15.20
2018,08,18,02,09,15.10
2018,08,18,02,10,15.10
2018,08,18,02,11,15.10
2018,08,18,02,12,15.10
2018,08,18,02,13,15.10
2018,08,18,02,14,15.10
2018,08,18,02,15,15.10
2018,08,18,02,16,15.10
2018,08,18,02,17,15.10
2018,08,18,02,18,15.10
2018,08,18,02,19,15.10
2018,08,18,02,20,15.10
2018,08,18,02,21,15.10
2018,08,18,02,22,15.10
2018,08,18,02,23,15.10
2018,08,18,02,24,15.00
2018,08,18,02,25,15.10
2018,08,18,02,26,15.10
2018,08,18,02,27,15.10
2018,08,18,02,28,15.10
2018,08,18,02,29,15.10
2018,08,18,02,30,15.10
2018,08,18,02,31,15.10
2018,08,18,02,32,15.00
2018,08,18,02,33,15.00
2018,08,18,02,34,15.00
2018,08,18,02,35,15.00
2018,08,18,02,36,15.00
2018,08,18,02,37,15.00
2018,08,18,02,38,15.00
2018,08,18,02,39,15.00
2018,08,18,02,40,15.00
2018,08,18,02,41,15.00
2018,08,18,02,42,15.00
2018,08,18,02,43,15.00
2018,08,18,02,44,15.00
2018,08,18,02,45,15.00
2018,08,18,02,46,15.00
2018,08,18,02,47,15.00
2018,08,18,02,48,15.00
2018,08,18,02,49,15.00
2018,08,18,02,50,14.90
2018,08,18,02,51,14.90
2018,08,18,02,52,14.90
2018,08,18,02,53,14.90
2018,08,18,02,54,14.90
2018,08,18,02,55,14.90
2018,08,18,02,56,14.90
2018,08,18,02,57,14.90
2018,08,18,02,58,14.90
2018,08,18,02,59,14.80
2018,08,18,03,00,14.80
2018,08,18,03,01,14.80
2018,08,18,03,02,14.80
2018,08,18,03,03,14.80
2018,08,18,03,04,14.80
2018,08,18,03,05,14.80
2018,08,18,03,06,14.80
2018,08,18,03,07,14.80
2018,08,18,03,08,14.80
2018,08,18,03,09,14.80
2018,08,18,03,10,14.80
2018,08,18,03,11,14.80
2018,08,18,03,12,14.80
2018,08,18,03,13,14.80
2018,08,18,03,14,14.80
2018,08,18,03,15,14.80
2018,08,18,03,16,14.80
2018,08,18,03,17,14.80
2018,08,18,03,18,14.80
2018,08,18,03,19,14.80
2018,08,18,03,20,14.80
2018,08,18,03,21,14.80
2018,08,18,03,22,14.70
2018,08,18,03,23,14.70
2018,08,18,03,24,14.70
2018,08,18,03,25,14.70
2018,08,18,03,26,14.70
2018,08,18,03,27,14.70
2018,08,18,03,28,14.60
2018,08,18,03,29,14.60
2018,08,18,03,30,14.60
2018,08,18,03,31,14.60
2018,08,18,03,32,14.60
2018,08,18,03,33,14.60
2018,08,18,03,34,14.60
2018,08,18,03,35,14.60
2018,08,18,03,36,14.50
2018,08,18,03,37,14.50
2018,08,18,03,38,14.50
2018,08,18,03,39,14.50
2018,08,18,03,40,14.50
2018,08,18,03,41,14.50
2018,08,18,03,42,14.50
2018,08,18,03,43,14.50
2018,08,18,03,44,14.50
2018,08,18,03,45,14.40
2018,08,18,03,46,14.50
2018,08,18,03,47,14.50
2018,08,18,03,48,14.50
2018,08,18,03,49,14.50
2018,08,18,03,50,14.50
2018,08,18,03,51,14.50
2018,08,18,03,52,14.50
2018,08,18,03,53,14.50
2018,08,18,03,54,14.50
2018,08,18,03,55,14.50
2018,08,18,03,56,14.50
2018,08,18,03,57,14.50
2018,08,18,03,58,14.50
2018,08,18,03,59,14.50
2018,08,18,04,00,14.50
2018,08,18,04,01,14.40
2018,08,18,04,02,14.40
2018,08,18,04,03,14.40
2018,08,18,04,04,14.40
2018,08,18,04,05,14.40
2018,08,18,04,06,14.40
2018,08,18,04,07,14.40
2018,08,18,04,08,14.40
2018,08,18,04,09,14.30
2018,08,18,04,10,14.30
2018,08,18,04,11,14.30
2018,08,18,04,12,14.30
2018,08,18,04,13,14.30
2018,08,18,04,14,14.30
2018,08,18,04,15,14.30
2018,08,18,04,16,14.30
2018,08,18,04,17,14.30
2018,08,18,04,18,14.30
2018,08,18,04,19,14.30
2018,08,18,04,20,14.30
2018,08,18,04,21,14.20
2018,08,18,04,22,14.20
2018,08,18,04,23,14.20
2018,08,18,04,24,14.20
2018,08,18,04,25,14.20
2018,08,18,04,26,14.20
2018,08,18,04,27,14.20
2018,08,18,04,28,14.20
2018,08,18,04,29,14.20
2018,08,18,04,30,14.20
2018,08,18,04,31,14.20
2018,08,18,04,32,14.20
2018,08,18,04,33,14.20
2018,08,18,04,34,14.20
2018,08,18,04,35,14.20
2018,08,18,04,36,14.10
2018,08,18,04,37,14.10
2018,08,18,04,38,14.10
2018,08,18,04,39,14.10
2018,08,18,04,40,14.10
2018,08,18,04,41,14.10
2018,08,18,04,42,14.10
2018,08,18,04,43,14.10
2018,08,18,04,44,14.10
2018,08,18,04,45,14.10
2018,08,18,04,46,14.10
2018,08,18,04,47,14.10
2018,08,18,04,48,14.10
2018,08,18,04,49,14.10
2018,08,18,04,50,14.10
2018,08,18,04,51,14.10
2018,08,18,04,52,14.10
2018,08,18,04,53,14.10
2018,08,18,04,54,14.10
2018,08,18,04,55,14.00
2018,08,18,04,56,14.00
2018,08,18,04,57,14.00
2018,08,18,04,58,14.00
2018,08,18,04,59,14.00
2018,08,18,05,00,14.00
2018,08,18,05,01,13.90
2018,08,18,05,02,13.90
2018,08,18,05,03,13.90
2018,08,18,05,04,13.90
2018,08,18,05,05,13.90
2018,08,18,05,06,13.90
2018,08,18,05,07,13.90
2018,08,18,05,08,13.90
2018,08,18,05,09,13.90
2018,08,18,05,10,13.90
2018,08,18,05,11,13.90
2018,08,18,05,12,13.90
2018,08,18,05,13,13.90
2018,08,18,05,14,13.90
2018,08,18,05,15,13.90
2018,08,18,05,16,13.90
2018,08,18,05,17,13.90
2018,08,18,05,18,13.90
2018,08,18,05,19,13.90
2018,08,18,05,20,13.90
2018,08,18,05,21,13.90
2018,08,18,05,22,13.90
2018,08,18,05,23,13.90
2018,08,18,05,24,13.90
2018,08,18,05,25,13.90
2018,08,18,05,26,13.90
2018,08,18,05,27,13.90
2018,08,18,05,28,13.90
2018,08,18,05,29,13.90
2018,08,18,05,30,13.90
2018,08,18,05,31,13.90
2018,08,18,05,32,13.90
2018,08,18,05,33,13.90
2018,08,18,05,34,13.90
2018,08,18,05,35,13.90
2018,08,18,05,36,13.90
2018,08,18,05,37,13.90
2018,08,18,05,38,13.90
2018,08,18,05,39,13.90
2018,08,18,05,40,13.90
2018,08,18,05,41,13.90
2018,08,18,05,42,13.80
2018,08,18,05,43,13.80
2018,08,18,05,44,13.80
2018,08,18,05,45,13.80
2018,08,18,05,46,13.80
2018,08,18,05,47,13.80
2018,08,18,05,48,13.80
2018,08,18,05,49,13.80
2018,08,18,05,50,13.80
2018,08,18,05,51,13.80
2018,08,18,05,52,13.80
2018,08,18,05,53,13.80
2018,08,18,05,54,13.80
2018,08,18,05,55,13.80
2018,08,18,05,56,13.70
2018,08,18,05,57,13.70
2018,08,18,05,58,13.70
2018,08,18,05,59,13.70
2018,08,18,06,00,13.70
2018,08,18,06,01,13.70
2018,08,18,06,02,13.70
2018,08,18,06,03,13.70
2018,08,18,06,04,13.70
2018,08,18,06,05,13.70
2018,08,18,06,06,13.70
2018,08,18,06,07,13.70
2018,08,18,06,08,13.70
2018,08,18,06,09,13.70
2018,08,18,06,10,13.60
2018,08,18,06,11,13.70
2018,08,18,06,12,13.70
2018,08,18,06,13,13.70
2018,08,18,06,14,13.70
2018,08,18,06,15,13.70
2018,08,18,06,16,13.70
2018,08,18,06,17,13.70
2018,08,18,06,18,13.70
2018,08,18,06,19,13.70
2018,08,18,06,20,13.70
2018,08,18,06,21,13.70
2018,08,18,06,22,13.70
2018,08,18,06,23,13.70
2018,08,18,06,24,13.70
2018,08,18,06,25,13.70
2018,08,18,06,26,13.70
2018,08,18,06,27,13.70
2018,08,18,06,28,13.70
2018,08,18,06,29,13.70
2018,08,18,06,30,13.70
2018,08,18,06,31,13.70
2018,08,18,06,32,13.70
2018,08,18,06,33,13.70
2018,08,18,06,34,13.70
2018,08,18,06,35,13.70
2018,08,18,06,36,13.70
2018,08,18,06,37,13.70
2018,08,18,06,38,13.70
2018,08,18,06,39,13.70
2018,08,18,06,40,13.70
2018,08,18,06,41,13.70
2018,08,18,06,42,13.70
2018,08,18,06,43,13.70
2018,08,18,06,44,13.70
2018,08,18,06,45,13.70
2018,08,18,06,46,13.70
2018,08,18,06,47,13.70
2018,08,18,06,48,13.70
2018,08,18,06,49,13.70
2018,08,18,06,50,13.70
2018,08,18,06,51,13.70
2018,08,18,06,52,13.70
2018,08,18,06,53,13.70
2018,08,18,06,54,13.70
2018,08,18,06,55,13.70
2018,08,18,06,56,13.70
2018,08,18,06,57,13.70
2018,08,18,06,58,13.70
2018,08,18,06,59,13.70
2018,08,18,07,00,13.70
2018,08,18,07,01,13.70
2018,08,18,07,02,13.70
2018,08,18,07,03,13.80
2018,08,18,07,04,13.80
2018,08,18,07,05,13.80
2018,08,18,07,06,13.80
2018,08,18,07,07,13.80
2018,08,18,07,08,13.80
2018,08,18,07,09,13.80
2018,08,18,07,10,13.80
2018,08,18,07,11,13.80
2018,08,18,07,12,13.80
2018,08,18,07,13,13.80
2018,08,18,07,14,13.80
2018,08,18,07,15,13.80
2018,08,18,07,16,13.90
2018,08,18,07,17,13.90
2018,08,18,07,18,13.90
2018,08,18,07,19,13.90
2018,08,18,07,20,13.90
2018,08,18,07,21,13.90
2018,08,18,07,22,13.90
2018,08,18,07,23,13.90
2018,08,18,07,24,13.90
2018,08,18,07,25,13.90
2018,08,18,07,26,13.90
2018,08,18,07,27,13.90
2018,08,18,07,28,13.90
2018,08,18,07,29,14.00
2018,08,18,07,30,14.00
2018,08,18,07,31,14.00
2018,08,18,07,32,14.00
2018,08,18,07,33,14.00
2018,08,18,07,34,14.10
2018,08,18,07,35,14.10
2018,08,18,07,36,14.10
2018,08,18,07,37,14.10
2018,08,18,07,38,14.10
2018,08,18,07,39,14.10
2018,08,18,07,40,14.10
2018,08,18,07,41,14.10
2018,08,18,07,42,14.10
2018,08,18,07,43,14.10
2018,08,18,07,44,14.20
2018,08,18,07,45,14.20
2018,08,18,07,46,14.20
2018,08,18,07,47,14.20
2018,08,18,07,48,14.20
2018,08,18,07,49,14.20
2018,08,18,07,50,14.20
2018,08,18,07,51,14.30
2018,08,18,07,52,14.30
2018,08,18,07,53,14.30
2018,08,18,07,54,14.30
2018,08,18,07,55,14.30
2018,08,18,07,56,14.30
2018,08,18,07,57,14.30
2018,08,18,07,58,14.30
2018,08,18,07,59,14.30
2018,08,18,08,00,14.40
2018,08,18,08,01,14.40
2018,08,18,08,02,14.40
2018,08,18,08,03,14.50
2018,08,18,08,04,14.50
2018,08,18,08,05,14.60
2018,08,18,08,06,14.60
2018,08,18,08,07,14.60
2018,08,18,08,08,14.70
2018,08,18,08,09,14.70
2018,08,18,08,10,14.70
2018,08,18,08,11,14.80
2018,08,18,08,12,14.80
2018,08,18,08,13,14.80
2018,08,18,08,14,14.80
2018,08,18,08,15,14.80
2018,08,18,08,16,14.90
2018,08,18,08,17,14.90
2018,08,18,08,18,14.90
2018,08,18,08,19,14.90
2018,08,18,08,20,14.90
2018,08,18,08,21,14.90
2018,08,18,08,22,14.90
2018,08,18,08,23,15.00
2018,08,18,08,24,15.00
2018,08,18,08,25,15.10
2018,08,18,08,26,15.10
2018,08,18,08,27,15.20
2018,08,18,08,28,15.20
2018,08,18,08,29,15.20
2018,08,18,08,30,15.30
2018,08,18,08,31,15.30
2018,08,18,08,32,15.30
2018,08,18,08,33,15.40
2018,08,18,08,34,15.40
2018,08,18,08,35,15.40
2018,08,18,08,36,15.50
2018,08,18,08,37,15.50
2018,08,18,08,38,15.50
2018,08,18,08,39,15.60
2018,08,18,08,40,15.60
2018,08,18,08,41,15.60
2018,08,18,08,42,15.60
2018,08,18,08,43,15.70
2018,08,18,08,44,15.70
2018,08,18,08,45,15.70
2018,08,18,08,46,15.80
2018,08,18,08,47,15.80
2018,08,18,08,48,15.80
2018,08,18,08,49,15.90
2018,08,18,08,50,15.90
2018,08,18,08,51,16.00
2018,08,18,08,52,16.00
2018,08,18,08,53,16.00
2018,08,18,08,54,16.00
2018,08,18,08,55,16.00
2018,08,18,08,56,16.10
2018,08,18,08,57,16.10
2018,08,18,08,58,16.10
2018,08,18,08,59,16.10
2018,08,18,09,00,16.20
2018,08,18,09,01,16.20
2018,08,18,09,02,16.20
2018,08,18,09,03,16.20
2018,08,18,09,04,16.30
2018,08,18,09,05,16.30
2018,08,18,09,06,16.40
2018,08,18,09,07,16.40
2018,08,18,09,08,16.40
2018,08,18,09,09,16.40
2018,08,18,09,10,16.40
2018,08,18,09,11,16.40
2018,08,18,09,12,16.40
2018,08,18,09,13,16.50
2018,08,18,09,14,16.50
2018,08,18,09,15,16.50
2018,08,18,09,16,16.60
2018,08,18,09,17,16.60
2018,08,18,09,18,16.70
2018,08,18,09,19,16.70
2018,08,18,09,20,16.70
2018,08,18,09,21,16.80
2018,08,18,09,22,16.80
2018,08,18,09,23,16.80
2018,08,18,09,24,16.90
2018,08,18,09,25,16.90
2018,08,18,09,26,17.00
2018,08,18,09,27,17.00
2018,08,18,09,28,17.10
2018,08,18,09,29,17.10
2018,08,18,09,30,17.10
2018,08,18,09,31,17.10
2018,08,18,09,32,17.10
2018,08,18,09,33,17.20
2018,08,18,09,34,17.20
2018,08,18,09,35,17.20
2018,08,18,09,36,17.20
2018,08,18,09,37,17.20
2018,08,18,09,38,17.20
2018,08,18,09,39,17.20
2018,08,18,09,40,17.20
2018,08,18,09,41,17.30
2018,08,18,09,42,17.30
2018,08,18,09,43,17.30
2018,08,18,09,44,17.30
2018,08,18,09,45,17.30
2018,08,18,09,46,17.30
2018,08,18,09,47,17.40
2018,08,18,09,48,17.40
2018,08,18,09,49,17.40
2018,08,18,09,50,17.30
2018,08,18,09,51,17.30
2018,08,18,09,52,17.40
2018,08,18,09,53,17.40
2018,08,18,09,54,17.40
2018,08,18,09,55,17.50
2018,08,18,09,56,17.50
2018,08,18,09,57,17.60
2018,08,18,09,58,17.70
2018,08,18,09,59,17.70
2018,08,18,10,00,17.80
2018,08,18,10,01,17.80
2018,08,18,10,02,17.80
2018,08,18,10,03,17.80
2018,08,18,10,04,17.80
2018,08,18,10,05,17.90
2018,08,18,10,06,17.90
2018,08,18,10,07,18.00
2018,08,18,10,08,18.00
2018,08,18,10,09,18.10
2018,08,18,10,10,18.20
2018,08,18,10,11,18.20
2018,08,18,10,12,18.30
2018,08,18,10,13,18.30
2018,08,18,10,14,18.30
2018,08,18,10,15,18.30
2018,08,18,10,16,18.30
2018,08,18,10,17,18.30
2018,08,18,10,18,18.30
2018,08,18,10,19,18.30
2018,08,18,10,20,18.30
2018,08,18,10,21,18.30
2018,08,18,10,22,18.30
2018,08,18,10,23,18.30
2018,08,18,10,24,18.30
2018,08,18,10,25,18.30
2018,08,18,10,26,18.30
2018,08,18,10,27,18.30
2018,08,18,10,28,18.30
2018,08,18,10,29,18.20
2018,08,18,10,30,18.20
2018,08,18,10,31,18.20
2018,08,18,10,32,18.20
2018,08,18,10,33,18.20
2018,08,18,10,34,18.20
2018,08,18,10,35,18.30
2018,08,18,10,36,18.30
2018,08,18,10,37,18.30
2018,08,18,10,38,18.40
2018,08,18,10,39,18.40
2018,08,18,10,40,18.40
2018,08,18,10,41,18.50
2018,08,18,10,42,18.60
2018,08,18,10,43,18.60
2018,08,18,10,44,18.50
2018,08,18,10,45,18.50
2018,08,18,10,46,18.40
2018,08,18,10,47,18.40
2018,08,18,10,48,18.30
2018,08,18,10,49,18.20
2018,08,18,10,50,18.20
2018,08,18,10,51,18.20
2018,08,18,10,52,18.30
2018,08,18,10,53,18.30
2018,08,18,10,54,18.40
2018,08,18,10,55,18.40
2018,08,18,10,56,18.50
2018,08,18,10,57,18.50
2018,08,18,10,58,18.60
2018,08,18,10,59,18.60
2018,08,18,11,00,18.70
2018,08,18,11,01,18.80
2018,08,18,11,02,18.80
2018,08,18,11,03,18.80
2018,08,18,11,04,18.80
2018,08,18,11,05,18.80
2018,08,18,11,06,18.80
2018,08,18,11,07,18.80
2018,08,18,11,08,18.90
2018,08,18,11,09,18.90
2018,08,18,11,10,18.90
2018,08,18,11,11,18.90
2018,08,18,11,12,18.80
2018,08,18,11,13,18.80
2018,08,18,11,14,18.70
2018,08,18,11,15,18.70
2018,08,18,11,16,18.70
2018,08,18,11,17,18.80
2018,08,18,11,18,18.80
2018,08,18,11,19,18.90
2018,08,18,11,20,19.00
2018,08,18,11,21,19.10
2018,08,18,11,22,19.20
2018,08,18,11,23,19.20
2018,08,18,11,24,19.20
2018,08,18,11,25,19.20
2018,08,18,11,26,19.20
2018,08,18,11,27,19.10
2018,08,18,11,28,19.10
2018,08,18,11,29,19.10
2018,08,18,11,30,19.20
2018,08,18,11,31,19.20
2018,08,18,11,32,19.20
2018,08,18,11,33,19.30
2018,08,18,11,34,19.30
2018,08,18,11,35,19.40
2018,08,18,11,36,19.40
2018,08,18,11,37,19.50
2018,08,18,11,38,19.60
2018,08,18,11,39,19.60
2018,08,18,11,40,19.70
2018,08,18,11,41,19.70
2018,08,18,11,42,19.80
2018,08,18,11,43,19.80
2018,08,18,11,44,19.80
2018,08,18,11,45,19.80
2018,08,18,11,46,19.90
2018,08,18,11,47,19.90
2018,08,18,11,48,19.90
2018,08,18,11,49,20.00
2018,08,18,11,50,20.00
2018,08,18,11,51,20.10
2018,08,18,11,52,20.10
2018,08,18,11,53,20.20
2018,08,18,11,54,20.20
2018,08,18,11,55,20.30
2018,08,18,11,56,20.30
2018,08,18,11,57,20.30
2018,08,18,11,58,20.30
2018,08,18,11,59,20.30
2018,08,18,12,00,20.30
2018,08,18,12,01,20.30
2018,08,18,12,02,20.30
2018,08,18,12,03,20.30
2018,08,18,12,04,20.30
2018,08,18,12,05,20.30
2018,08,18,12,06,20.30
2018,08,18,12,07,20.30
2018,08,18,12,08,20.40
2018,08,18,12,09,20.50
2018,08,18,12,10,20.60
2018,08,18,12,11,20.70
2018,08,18,12,12,20.80
2018,08,18,12,13,20.90
2018,08,18,12,14,21.00
2018,08,18,12,15,21.20
2018,08,18,12,16,21.30
2018,08,18,12,17,21.30
2018,08,18,12,18,21.40
2018,08,18,12,19,21.40
2018,08,18,12,20,21.40
2018,08,18,12,21,21.40
2018,08,18,12,22,21.40
2018,08,18,12,23,21.40
2018,08,18,12,24,21.50
2018,08,18,12,25,21.60
2018,08,18,12,26,21.70
2018,08,18,12,27,21.70
2018,08,18,12,28,21.80
2018,08,18,12,29,21.90
2018,08,18,12,30,21.90
2018,08,18,12,31,22.00
2018,08,18,12,32,21.90
2018,08,18,12,33,21.90
2018,08,18,12,34,21.90
2018,08,18,12,35,21.90
2018,08,18,12,36,21.90
2018,08,18,12,37,21.90
2018,08,18,12,38,21.90
2018,08,18,12,39,21.80
2018,08,18,12,40,21.80
2018,08,18,12,41,21.70
2018,08,18,12,42,21.80
2018,08,18,12,43,21.80
2018,08,18,12,44,21.80
2018,08,18,12,45,21.80
2018,08,18,12,46,21.80
2018,08,18,12,47,21.90
2018,08,18,12,48,22.00
2018,08,18,12,49,22.10
2018,08,18,12,50,22.00
2018,08,18,12,51,22.00
2018,08,18,12,52,22.00
2018,08,18,12,53,22.10
2018,08,18,12,54,22.20
2018,08,18,12,55,22.30
2018,08,18,12,56,22.30
2018,08,18,12,57,22.40
2018,08,18,12,58,22.50
2018,08,18,12,59,22.50
2018,08,18,13,00,22.60
2018,08,18,13,01,22.60
2018,08,18,13,02,22.70
2018,08,18,13,03,22.70
2018,08,18,13,04,22.70
2018,08,18,13,05,22.70
2018,08,18,13,06,22.80
2018,08,18,13,07,22.80
2018,08,18,13,08,22.80
2018,08,18,13,09,22.80
2018,08,18,13,10,22.80
2018,08,18,13,11,22.80
2018,08,18,13,12,22.90
2018,08,18,13,13,23.00
2018,08,18,13,14,23.10
2018,08,18,13,15,23.10
2018,08,18,13,16,23.00
2018,08,18,13,17,23.00
2018,08,18,13,18,22.90
2018,08,18,13,19,22.80
2018,08,18,13,20,22.80
2018,08,18,13,21,22.80
2018,08,18,13,22,22.80
2018,08,18,13,23,22.80
2018,08,18,13,24,22.80
2018,08,18,13,25,22.80
2018,08,18,13,26,22.80
2018,08,18,13,27,22.80
2018,08,18,13,28,22.80
2018,08,18,13,29,22.90
2018,08,18,13,30,23.00
2018,08,18,13,31,23.10
2018,08,18,13,32,23.10
2018,08,18,13,33,23.10
2018,08,18,13,34,23.00
2018,08,18,13,35,23.00
2018,08,18,13,36,23.00
2018,08,18,13,37,22.90
2018,08,18,13,38,22.90
2018,08,18,13,39,22.80
2018,08,18,13,40,22.80
2018,08,18,13,41,22.70
2018,08,18,13,42,22.70
2018,08,18,13,43,22.70
2018,08,18,13,44,22.60
2018,08,18,13,45,22.70
2018,08,18,13,46,22.70
2018,08,18,13,47,22.80
2018,08,18,13,48,22.80
2018,08,18,13,49,22.90
2018,08,18,13,50,22.80
2018,08,18,13,51,22.80
2018,08,18,13,52,22.80
2018,08,18,13,53,22.90
2018,08,18,13,54,22.90
2018,08,18,13,55,22.90
2018,08,18,13,56,22.90
2018,08,18,13,57,22.90
2018,08,18,13,58,22.90
2018,08,18,13,59,22.80
2018,08,18,14,00,22.80
2018,08,18,14,01,22.80
2018,08,18,14,02,22.80
2018,08,18,14,03,22.90
2018,08,18,14,04,23.00
2018,08,18,14,05,23.00
2018,08,18,14,06,23.10
2018,08,18,14,07,23.20
2018,08,18,14,08,23.20
2018,08,18,14,09,23.30
2018,08,18,14,10,23.40
2018,08,18,14,11,23.40
2018,08,18,14,12,23.40
2018,08,18,14,13,23.40
2018,08,18,14,14,23.50
2018,08,18,14,15,23.60
2018,08,18,14,16,23.60
2018,08,18,14,17,23.70
2018,08,18,14,18,23.70
2018,08,18,14,19,23.70
2018,08,18,14,20,23.80
2018,08,18,14,21,23.80
2018,08,18,14,22,23.90
2018,08,18,14,23,23.90
2018,08,18,14,24,23.90
2018,08,18,14,25,23.90
2018,08,18,14,26,24.00
2018,08,18,14,27,24.10
2018,08,18,14,28,24.10
2018,08,18,14,29,24.20
2018,08,18,14,30,24.20
2018,08,18,14,31,24.30
2018,08,18,14,32,24.40
2018,08,18,14,33,24.40
2018,08,18,14,34,24.40
2018,08,18,14,35,24.40
2018,08,18,14,36,24.40
2018,08,18,14,37,24.50
2018,08,18,14,38,24.60
2018,08,18,14,39,24.60
2018,08,18,14,40,24.70
2018,08,18,14,41,24.80
2018,08,18,14,42,24.90
2018,08,18,14,43,25.10
2018,08,18,14,44,25.30
2018,08,18,14,45,25.40
2018,08,18,14,46,25.50
2018,08,18,14,47,25.50
2018,08,18,14,48,25.50
2018,08,18,14,49,25.60
2018,08,18,14,50,25.50
2018,08,18,14,51,25.50
2018,08,18,14,52,25.50
2018,08,18,14,53,25.60
2018,08,18,14,54,25.60
2018,08,18,14,55,25.60
2018,08,18,14,56,25.60
2018,08,18,14,57,25.60
2018,08,18,14,58,25.60
2018,08,18,14,59,25.60
2018,08,18,15,00,25.60
2018,08,18,15,01,25.50
2018,08,18,15,02,25.40
2018,08,18,15,03,25.30
2018,08,18,15,04,25.20
2018,08,18,15,05,25.20
2018,08,18,15,06,25.10
2018,08,18,15,07,25.00
2018,08,18,15,08,24.90
2018,08,18,15,09,24.80
2018,08,18,15,10,24.80
2018,08,18,15,11,24.90
2018,08,18,15,12,24.90
2018,08,18,15,13,25.00
2018,08,18,15,14,25.00
2018,08,18,15,15,25.00
2018,08,18,15,16,25.00
2018,08,18,15,17,25.10
2018,08,18,15,18,25.10
2018,08,18,15,19,25.20
2018,08,18,15,20,25.10
2018,08,18,15,21,25.10
2018,08,18,15,22,25.10
2018,08,18,15,23,25.10
2018,08,18,15,24,25.00
2018,08,18,15,25,25.00
2018,08,18,15,26,24.90
2018,08,18,15,27,24.90
2018,08,18,15,28,24.90
2018,08,18,15,29,24.80
2018,08,18,15,30,24.80
2018,08,18,15,31,24.70
2018,08,18,15,32,24.70
2018,08,18,15,33,24.60
2018,08,18,15,34,24.60
2018,08,18,15,35,24.60
2018,08,18,15,36,24.60
2018,08,18,15,37,24.70
2018,08,18,15,38,24.70
2018,08,18,15,39,24.80
2018,08,18,15,40,24.80
2018,08,18,15,41,24.80
2018,08,18,15,42,24.80
2018,08,18,15,43,24.90
2018,08,18,15,44,24.90
2018,08,18,15,45,24.90
2018,08,18,15,46,24.90
2018,08,18,15,47,24.90
2018,08,18,15,48,24.90
2018,08,18,15,49,24.90
2018,08,18,15,50,24.90
2018,08,18,15,51,24.90
2018,08,18,15,52,25.00
2018,08,18,15,53,25.00
2018,08,18,15,54,25.10
2018,08,18,15,55,25.00
2018,08,18,15,56,25.00
2018,08,18,15,57,25.10
2018,08,18,15,58,25.00
2018,08,18,15,59,25.00
2018,08,18,16,00,25.00
2018,08,18,16,01,25.10
2018,08,18,16,02,25.10
2018,08,18,16,03,25.10
2018,08,18,16,04,25.10
2018,08,18,16,05,25.20
2018,08,18,16,06,25.20
2018,08,18,16,07,25.20
2018,08,18,16,08,25.20
2018,08,18,16,09,25.30
2018,08,18,16,10,25.30
2018,08,18,16,11,25.30
2018,08,18,16,12,25.30
2018,08,18,16,13,25.30
2018,08,18,16,14,25.30
2018,08,18,16,15,25.30
2018,08,18,16,16,25.30
2018,08,18,16,17,25.40
2018,08,18,16,18,25.50
2018,08,18,16,19,25.60
2018,08,18,16,20,25.60
2018,08,18,16,21,25.70
2018,08,18,16,22,25.70
2018,08,18,16,23,25.60
2018,08,18,16,24,25.60
2018,08,18,16,25,25.60
2018,08,18,16,26,25.50
2018,08,18,16,27,25.50
2018,08,18,16,28,25.40
2018,08,18,16,29,25.40
2018,08,18,16,30,25.50
2018,08,18,16,31,25.50
2018,08,18,16,32,25.60
2018,08,18,16,33,25.60
2018,08,18,16,34,25.60
2018,08,18,16,35,25.70
2018,08,18,16,36,25.70
2018,08,18,16,37,25.70
2018,08,18,16,38,25.70
2018,08,18,16,39,25.80
2018,08,18,16,40,25.80
2018,08,18,16,41,25.80
2018,08,18,16,42,25.80
2018,08,18,16,43,25.90
2018,08,18,16,44,25.90
2018,08,18,16,45,25.90
2018,08,18,16,46,26.00
2018,08,18,16,47,26.00
2018,08,18,16,48,26.10
2018,08,18,16,49,26.10
2018,08,18,16,50,26.00
2018,08,18,16,51,26.00
2018,08,18,16,52,25.90
2018,08,18,16,53,25.90
2018,08,18,16,54,25.90
2018,08,18,16,55,25.90
2018,08,18,16,56,25.90
2018,08,18,16,57,25.90
2018,08,18,16,58,25.80
2018,08,18,16,59,25.70
2018,08,18,17,00,25.50
2018,08,18,17,01,25.50
2018,08,18,17,02,25.40
2018,08,18,17,03,25.40
2018,08,18,17,04,25.30
2018,08,18,17,05,25.30
2018,08,18,17,06,25.20
2018,08,18,17,07,25.10
2018,08,18,17,08,25.10
2018,08,18,17,09,25.00
2018,08,18,17,10,25.00
2018,08,18,17,11,25.00
2018,08,18,17,12,24.90
2018,08,18,17,13,24.90
2018,08,18,17,14,24.80
2018,08,18,17,15,24.80
2018,08,18,17,16,24.80
2018,08,18,17,17,24.70
2018,08,18,17,18,24.60
2018,08,18,17,19,24.50